Time,TemperatureF,DewpointF,PressureIn,WindDirection,WindDirectionDegrees,WindSpeedMPH,WindSpeedGustMPH,Humidity,HourlyPrecipIn,Conditions,Clouds,dailyrainin,SoftwareType,DateUTC
2013-09-20 00:00:00,62.9,54.9,29.60,WNW,284,2.0,6.0,75,0.00,,BKN018,0.48,VWS V15.00,2013-09-20 05:00:00,
2013-09-20 00:02:00,62.9,54.9,29.60,West,274,2.0,6.0,75,0.00,,BKN170,0.00,VWS V14.01,2013-09-20 05:02:00,
2013-09-20 00:07:00,62.7,54.3,29.60,WNW,287,3.0,8.0,74,0.00,,BKN170,0.00,VWS V14.01,2013-09-20 05:07:00,
2013-09-20 00:12:00,62.6,54.2,29.60,West,270,3.0,8.0,74,0.00,,BKN170,0.00,VWS V14.01,2013-09-20 05:12:00,
2013-09-20 00:17:00,62.4,53.3,29.60,WNW,301,2.0,13.0,72,0.00,,BKN170,0.00,VWS V14.01,2013-09-20 05:17:00,
2013-09-20 00:22:00,62.6,53.5,29.60,West,277,5.0,13.0,72,0.00,,BKN170,0.00,VWS V14.01,2013-09-20 05:22:00,
2013-09-20 00:27:00,62.4,53.3,29.60,WNW,295,4.0,13.0,72,0.00,,BKN170,0.00,VWS V14.01,2013-09-20 05:27:00,
2013-09-20 00:30:00,62.3,53.2,29.59,West,281,3.0,13.0,72,0.00,,BKN018,0.00,VWS V15.00,2013-09-20 05:30:00,
2013-09-20 00:32:00,62.1,53.3,29.59,WNW,297,8.0,10.0,73,0.00,,BKN170,0.00,VWS V14.01,2013-09-20 05:32:00,
2013-09-20 00:37:00,62.0,53.3,29.59,WNW,287,6.0,12.0,73,0.00,,BKN170,0.00,VWS V14.01,2013-09-20 05:37:00,
2013-09-20 00:42:00,61.8,53.1,29.59,West,270,3.0,13.0,73,0.00,,BKN170,0.00,VWS V14.01,2013-09-20 05:42:00,
2013-09-20 00:47:00,61.6,52.9,29.60,WNW,295,4.0,13.0,73,0.00,,BKN170,0.00,VWS V14.01,2013-09-20 05:47:00,
2013-09-20 00:52:00,61.5,52.8,29.60,NW,308,5.0,13.0,73,0.00,,BKN170,0.00,VWS V14.01,2013-09-20 05:52:00,
2013-09-20 00:57:00,61.3,53.0,29.60,West,281,3.0,13.0,74,0.00,,BKN170,0.00,VWS V14.01,2013-09-20 05:57:00,
2013-09-20 01:00:00,61.3,52.6,29.61,WNW,301,10.0,13.0,73,0.00,,BKN018,0.00,VWS V15.00,2013-09-20 06:00:00,
2013-09-20 01:02:00,61.2,52.5,29.61,West,269,6.0,10.0,73,0.00,,BKN300,0.00,VWS V14.01,2013-09-20 06:02:00,
2013-09-20 01:07:00,61.2,52.5,29.61,WNW,287,4.0,12.0,73,0.00,,BKN300,0.00,VWS V14.01,2013-09-20 06:07:00,
2013-09-20 01:12:00,60.9,52.6,29.61,West,278,3.0,12.0,74,0.00,,BKN300,0.00,VWS V14.01,2013-09-20 06:12:00,
2013-09-20 01:17:00,60.7,52.4,29.60,West,276,5.0,12.0,74,0.00,,BKN300,0.00,VWS V14.01,2013-09-20 06:17:00,
2013-09-20 01:22:00,60.5,52.5,29.60,West,270,1.0,12.0,75,0.00,,BKN300,0.00,VWS V14.01,2013-09-20 06:22:00,
2013-09-20 01:27:00,60.2,52.6,29.60,West,271,3.0,12.0,76,0.00,,BKN300,0.00,VWS V14.01,2013-09-20 06:27:00,
2013-09-20 01:30:00,60.1,52.5,29.61,WNW,288,1.0,12.0,76,0.00,,BKN018,0.00,VWS V15.00,2013-09-20 06:30:00,
2013-09-20 01:32:00,59.9,52.3,29.61,West,270,2.0,3.0,76,0.00,,BKN300,0.00,VWS V14.01,2013-09-20 06:32:00,
2013-09-20 01:37:00,59.6,52.7,29.61,WNW,283,3.0,6.0,78,0.00,,BKN300,0.00,VWS V14.01,2013-09-20 06:37:00,
2013-09-20 01:43:00,59.5,52.6,29.61,West,269,1.0,6.0,78,0.00,,BKN300,0.00,VWS V14.01,2013-09-20 06:43:00,
2013-09-20 01:48:00,59.3,52.8,29.61,West,269,2.0,7.0,79,0.00,,BKN300,0.00,VWS V14.01,2013-09-20 06:48:00,
2013-09-20 01:53:00,59.2,52.7,29.61,West,269,3.0,7.0,79,0.00,,BKN300,0.00,VWS V14.01,2013-09-20 06:53:00,
2013-09-20 01:58:00,59.0,52.8,29.61,West,271,3.0,8.0,80,0.00,,BKN300,0.00,VWS V14.01,2013-09-20 06:58:00,
2013-09-20 02:00:00,59.0,52.8,29.61,West,259,1.0,8.0,80,0.00,,BKN018,0.00,VWS V15.00,2013-09-20 07:00:00,
2013-09-20 02:03:00,59.0,52.8,29.61,WSW,257,0.0,4.0,80,0.00,,BKN140,0.00,VWS V14.01,2013-09-20 07:03:00,
2013-09-20 02:08:00,58.9,53.1,29.61,WNW,283,3.0,10.0,81,0.00,,BKN140,0.00,VWS V14.01,2013-09-20 07:08:00,
2013-09-20 02:13:00,58.7,52.9,29.61,West,270,2.0,10.0,81,0.00,,BKN140,0.00,VWS V14.01,2013-09-20 07:13:00,
2013-09-20 02:18:00,58.7,53.2,29.61,West,270,3.0,10.0,82,0.00,,BKN140,0.00,VWS V14.01,2013-09-20 07:18:00,
2013-09-20 02:23:00,58.7,53.2,29.61,West,274,1.0,10.0,82,0.00,,BKN140,0.00,VWS V14.01,2013-09-20 07:23:00,
2013-09-20 02:28:00,58.7,53.2,29.61,WSW,249,0.0,10.0,82,0.00,,BKN140,0.00,VWS V14.01,2013-09-20 07:28:00,
2013-09-20 02:30:00,58.7,53.2,29.62,WSW,239,0.0,10.0,82,0.00,,BKN018,0.00,VWS V15.00,2013-09-20 07:30:00,
2013-09-20 02:33:00,58.6,53.1,29.62,WSW,250,0.0,10.0,82,0.00,,BKN140,0.00,VWS V14.01,2013-09-20 07:33:00,
2013-09-20 02:38:00,58.6,53.5,29.62,West,270,2.0,10.0,83,0.00,,BKN140,0.00,VWS V14.01,2013-09-20 07:38:00,
2013-09-20 02:43:00,58.6,53.5,29.62,West,270,6.0,10.0,83,0.00,,BKN140,0.00,VWS V14.01,2013-09-20 07:43:00,
2013-09-20 02:48:00,58.4,53.3,29.61,West,262,1.0,10.0,83,0.00,,BKN140,0.00,VWS V14.01,2013-09-20 07:48:00,
2013-09-20 02:53:00,58.3,53.2,29.61,West,270,4.0,10.0,83,0.00,,BKN140,0.00,VWS V14.01,2013-09-20 07:53:00,
2013-09-20 02:58:00,58.1,53.3,29.61,NW,314,2.0,11.0,84,0.00,,BKN140,0.00,VWS V14.01,2013-09-20 07:58:00,
2013-09-20 03:00:00,58.0,53.2,29.61,West,260,3.0,11.0,84,0.00,,BKN018,0.00,VWS V15.00,2013-09-20 08:00:00,
2013-09-20 03:03:00,57.8,53.3,29.61,WSW,247,6.0,8.0,85,0.00,,OVC100,0.00,VWS V14.01,2013-09-20 08:03:00,
2013-09-20 03:08:00,57.6,53.1,29.61,West,273,7.0,11.0,85,0.00,,OVC100,0.00,VWS V14.01,2013-09-20 08:08:00,
2013-09-20 03:13:00,57.5,53.0,29.61,West,276,3.0,11.0,85,0.00,,OVC100,0.00,VWS V14.01,2013-09-20 08:13:00,
2013-09-20 03:18:00,57.3,53.2,29.61,WSW,250,3.0,11.0,86,0.00,,OVC100,0.00,VWS V14.01,2013-09-20 08:18:00,
2013-09-20 03:23:00,57.2,53.1,29.61,West,270,2.0,11.0,86,0.00,,OVC100,0.00,VWS V14.01,2013-09-20 08:23:00,
2013-09-20 03:28:00,57.0,52.9,29.61,WNW,291,2.0,11.0,86,0.00,,OVC100,0.00,VWS V14.01,2013-09-20 08:28:00,
2013-09-20 03:30:00,57.0,52.5,29.61,West,270,2.0,11.0,85,0.00,,BKN018,0.00,VWS V15.00,2013-09-20 08:30:00,
2013-09-20 03:33:00,57.0,52.5,29.61,West,270,2.0,8.0,85,0.00,,OVC100,0.00,VWS V14.01,2013-09-20 08:33:00,
2013-09-20 03:38:00,56.9,52.4,29.61,West,269,2.0,8.0,85,0.00,,OVC100,0.00,VWS V14.01,2013-09-20 08:38:00,
2013-09-20 03:43:00,56.7,52.2,29.61,WNW,294,2.0,8.0,85,0.00,,OVC100,0.00,VWS V14.01,2013-09-20 08:43:00,
2013-09-20 03:48:00,56.6,52.2,29.61,West,276,1.0,8.0,85,0.00,,OVC100,0.00,VWS V14.01,2013-09-20 08:48:00,
2013-09-20 03:53:00,56.5,52.0,29.61,West,269,3.0,8.0,85,0.00,,OVC100,0.00,VWS V14.01,2013-09-20 08:53:00,
2013-09-20 03:58:00,56.5,52.0,29.61,WNW,290,3.0,8.0,85,0.00,,OVC100,0.00,VWS V14.01,2013-09-20 08:58:00,
2013-09-20 04:00:00,56.3,51.9,29.62,WNW,290,1.0,8.0,85,0.00,,BKN018,0.00,VWS V15.00,2013-09-20 09:00:00,
2013-09-20 04:03:00,56.2,52.1,29.62,West,263,1.0,3.0,86,0.00,,OVC100,0.00,VWS V14.01,2013-09-20 09:03:00,
2013-09-20 04:08:00,56.0,51.9,29.62,West,269,2.0,5.0,86,0.00,,OVC100,0.00,VWS V14.01,2013-09-20 09:08:00,
2013-09-20 04:13:00,55.9,51.8,29.62,West,273,1.0,5.0,86,0.00,,OVC100,0.00,VWS V14.01,2013-09-20 09:13:00,
2013-09-20 04:18:00,55.7,51.6,29.62,West,260,1.0,5.0,86,0.00,,BKN110,0.00,VWS V14.01,2013-09-20 09:18:00,
2013-09-20 04:23:00,55.6,51.8,29.62,West,269,2.0,5.0,87,0.00,,BKN110,0.00,VWS V14.01,2013-09-20 09:23:00,
2013-09-20 04:28:00,55.4,51.6,29.62,West,270,0.0,5.0,87,0.00,,BKN110,0.00,VWS V14.01,2013-09-20 09:28:00,
2013-09-20 04:30:00,55.4,51.6,29.62,West,269,2.0,5.0,87,0.00,,BKN018,0.00,VWS V15.00,2013-09-20 09:30:00,
2013-09-20 04:33:00,55.3,51.5,29.62,West,269,1.0,8.0,87,0.00,,BKN110,0.00,VWS V14.01,2013-09-20 09:33:00,
2013-09-20 04:38:00,55.3,51.5,29.62,West,270,3.0,8.0,87,0.00,,BKN110,0.00,VWS V14.01,2013-09-20 09:38:00,
2013-09-20 04:43:00,55.1,51.3,29.62,West,260,0.0,10.0,87,0.00,,BKN110,0.00,VWS V14.01,2013-09-20 09:43:00,
2013-09-20 04:48:00,54.8,51.3,29.62,WSW,254,0.0,10.0,88,0.00,,BKN110,0.00,VWS V14.01,2013-09-20 09:48:00,
2013-09-20 04:53:00,54.7,51.2,29.62,West,263,3.0,10.0,88,0.00,,BKN110,0.00,VWS V14.01,2013-09-20 09:53:00,
2013-09-20 04:58:00,54.5,51.3,29.62,West,269,1.0,10.0,89,0.00,,BKN110,0.00,VWS V14.01,2013-09-20 09:58:00,
2013-09-20 05:00:00,54.5,51.3,29.63,West,270,5.0,10.0,89,0.00,,BKN018,0.00,VWS V15.00,2013-09-20 10:00:00,
2013-09-20 05:03:00,54.4,51.2,29.63,WNW,298,2.0,5.0,89,0.00,,SCT100,0.00,VWS V14.01,2013-09-20 10:03:00,
2013-09-20 05:08:00,54.2,51.0,29.63,West,269,5.0,6.0,89,0.00,,SCT100,0.00,VWS V14.01,2013-09-20 10:08:00,
2013-09-20 05:13:00,54.1,51.2,29.63,West,270,2.0,6.0,90,0.00,,SCT100,0.00,VWS V14.01,2013-09-20 10:13:00,
2013-09-20 05:18:00,53.9,51.0,29.63,West,270,1.0,6.0,90,0.00,,BKN036,0.00,VWS V14.01,2013-09-20 10:18:00,
2013-09-20 05:23:00,53.8,50.9,29.63,West,270,2.0,6.0,90,0.00,,BKN036,0.00,VWS V14.01,2013-09-20 10:23:00,
2013-09-20 05:28:00,53.6,50.7,29.63,West,264,2.0,6.0,90,0.00,,BKN036,0.00,VWS V14.01,2013-09-20 10:28:00,
2013-09-20 05:30:00,53.6,51.0,29.62,WSW,247,1.0,6.0,91,0.00,,BKN018,0.00,VWS V15.00,2013-09-20 10:30:00,
2013-09-20 05:33:00,53.5,50.9,29.62,West,270,2.0,4.0,91,0.00,,BKN036,0.00,VWS V14.01,2013-09-20 10:33:00,
2013-09-20 05:38:00,53.3,50.7,29.62,West,269,0.0,4.0,91,0.00,,BKN036,0.00,VWS V14.01,2013-09-20 10:38:00,
2013-09-20 05:43:00,53.2,50.7,29.62,West,270,0.0,4.0,91,0.00,,BKN036,0.00,VWS V14.01,2013-09-20 10:43:00,
2013-09-20 05:48:00,53.1,50.8,29.62,West,270,1.0,4.0,92,0.00,,BKN036,0.00,VWS V14.01,2013-09-20 10:48:00,
2013-09-20 05:53:00,53.1,50.8,29.62,WNW,287,3.0,5.0,92,0.00,,BKN036,0.00,VWS V14.01,2013-09-20 10:53:00,
2013-09-20 05:58:00,53.1,50.8,29.62,West,259,4.0,5.0,92,0.00,,BKN036,0.00,VWS V14.01,2013-09-20 10:58:00,
2013-09-20 06:00:00,53.1,50.8,29.62,West,260,0.0,5.0,92,0.00,,BKN018,0.00,VWS V15.00,2013-09-20 11:00:00,
2013-09-20 06:03:00,53.1,50.8,29.62,West,259,1.0,2.0,92,0.00,,OVC025,0.00,VWS V14.01,2013-09-20 11:03:00,
2013-09-20 06:08:00,53.1,51.1,29.62,West,270,2.0,2.0,93,0.00,,OVC025,0.00,VWS V14.01,2013-09-20 11:08:00,
2013-09-20 06:13:00,53.1,51.1,29.62,West,263,3.0,8.0,93,0.00,,OVC025,0.00,VWS V14.01,2013-09-20 11:13:00,
2013-09-20 06:18:00,53.2,51.2,29.63,West,278,3.0,8.0,93,0.00,,OVC025,0.00,VWS V14.01,2013-09-20 11:18:00,
2013-09-20 06:23:00,53.2,51.2,29.63,WSW,257,0.0,8.0,93,0.00,,OVC025,0.00,VWS V14.01,2013-09-20 11:23:00,
2013-09-20 06:28:00,53.2,51.2,29.63,WNW,300,1.0,8.0,93,0.00,,OVC025,0.00,VWS V14.01,2013-09-20 11:28:00,
2013-09-20 06:30:00,53.3,51.3,29.63,WNW,290,4.0,8.0,93,0.00,,BKN018,0.00,VWS V15.00,2013-09-20 11:30:00,
2013-09-20 06:33:00,53.3,51.3,29.63,WNW,288,4.0,6.0,93,0.00,,OVC027,0.00,VWS V14.01,2013-09-20 11:33:00,
2013-09-20 06:38:00,53.3,51.3,29.63,WNW,288,1.0,6.0,93,0.00,,OVC027,0.00,VWS V14.01,2013-09-20 11:38:00,
2013-09-20 06:43:00,53.3,51.3,29.63,West,270,0.0,8.0,93,0.00,,OVC027,0.00,VWS V14.01,2013-09-20 11:43:00,
2013-09-20 06:48:00,53.3,51.3,29.64,West,270,2.0,8.0,93,0.00,,OVC027,0.00,VWS V14.01,2013-09-20 11:48:00,
2013-09-20 06:53:00,53.3,51.3,29.64,West,270,1.0,8.0,93,0.00,,OVC027,0.00,VWS V14.01,2013-09-20 11:53:00,
2013-09-20 06:58:00,53.5,51.5,29.64,WNW,291,2.0,8.0,93,0.00,,OVC027,0.00,VWS V14.01,2013-09-20 11:58:00,
2013-09-20 07:00:00,53.5,51.5,29.64,WNW,283,0.0,8.0,93,0.00,,BKN018,0.00,VWS V15.00,2013-09-20 12:00:00,
2013-09-20 07:03:00,53.5,51.5,29.64,West,270,2.0,6.0,93,0.00,,OVC014,0.00,VWS V14.01,2013-09-20 12:03:00,
2013-09-20 07:08:00,53.5,51.5,29.64,West,264,1.0,6.0,93,0.00,,OVC014,0.00,VWS V14.01,2013-09-20 12:08:00,
2013-09-20 07:13:00,53.5,51.5,29.64,West,264,2.0,6.0,93,0.00,,OVC014,0.00,VWS V14.01,2013-09-20 12:13:00,
2013-09-20 07:18:00,53.6,51.6,29.65,WSW,249,2.0,6.0,93,0.00,,OVC014,0.00,VWS V14.01,2013-09-20 12:18:00,
2013-09-20 07:23:00,53.6,51.6,29.65,West,264,1.0,6.0,93,0.00,,OVC014,0.00,VWS V14.01,2013-09-20 12:23:00,
2013-09-20 07:28:00,53.6,51.9,29.65,West,262,0.0,6.0,94,0.00,,OVC014,0.00,VWS V14.01,2013-09-20 12:28:00,
2013-09-20 07:30:00,53.6,51.9,29.65,West,263,0.0,6.0,94,0.00,,BKN018,0.00,VWS V15.00,2013-09-20 12:30:00,
2013-09-20 07:33:00,53.6,51.9,29.65,West,264,0.0,1.0,94,0.00,,OVC016,0.00,VWS V14.01,2013-09-20 12:33:00,
2013-09-20 07:38:00,53.6,51.9,29.65,WSW,247,5.0,5.0,94,0.00,,OVC016,0.00,VWS V14.01,2013-09-20 12:38:00,
2013-09-20 07:43:00,53.8,52.4,29.65,WSW,252,0.0,5.0,95,0.00,,OVC016,0.00,VWS V14.01,2013-09-20 12:43:00,
2013-09-20 07:48:00,53.8,52.4,29.65,WSW,256,1.0,5.0,95,0.00,,OVC018,0.00,VWS V14.01,2013-09-20 12:48:00,
2013-09-20 07:53:00,53.9,52.5,29.65,SW,228,0.0,6.0,95,0.00,,OVC018,0.00,VWS V14.01,2013-09-20 12:53:00,
2013-09-20 07:58:00,53.9,52.5,29.65,WSW,257,0.0,6.0,95,0.00,,OVC018,0.00,VWS V14.01,2013-09-20 12:58:00,
2013-09-20 08:00:00,53.9,52.8,29.65,West,259,0.0,6.0,96,0.00,,BKN018,0.00,VWS V15.00,2013-09-20 13:00:00,
2013-09-20 08:03:00,53.9,52.8,29.65,West,262,0.0,3.0,96,0.00,,OVC018,0.00,VWS V14.01,2013-09-20 13:03:00,
2013-09-20 08:08:00,54.1,53.0,29.65,West,260,1.0,3.0,96,0.00,,OVC018,0.00,VWS V14.01,2013-09-20 13:08:00,
2013-09-20 08:13:00,54.1,53.0,29.65,West,269,1.0,6.0,96,0.00,,OVC018,0.00,VWS V14.01,2013-09-20 13:13:00,
2013-09-20 08:18:00,54.1,53.0,29.65,West,269,0.0,6.0,96,0.00,,OVC018,0.00,VWS V14.01,2013-09-20 13:18:00,
2013-09-20 08:23:00,54.2,53.1,29.65,West,267,1.0,6.0,96,0.00,,OVC018,0.00,VWS V14.01,2013-09-20 13:23:00,
2013-09-20 08:28:00,54.4,53.3,29.65,West,263,0.0,6.0,96,0.00,,OVC018,0.00,VWS V14.01,2013-09-20 13:28:00,
2013-09-20 08:30:00,54.4,53.3,29.65,West,266,2.0,6.0,96,0.00,,BKN018,0.00,VWS V15.00,2013-09-20 13:30:00,
2013-09-20 08:33:00,54.5,53.4,29.65,West,269,1.0,6.0,96,0.00,,OVC018,0.00,VWS V14.01,2013-09-20 13:33:00,
2013-09-20 08:38:00,54.5,53.4,29.65,West,270,0.0,6.0,96,0.00,,OVC018,0.00,VWS V14.01,2013-09-20 13:38:00,
2013-09-20 08:43:00,54.7,53.6,29.65,West,270,1.0,6.0,96,0.00,,OVC018,0.00,VWS V14.01,2013-09-20 13:43:00,
2013-09-20 08:48:00,55.0,53.9,29.65,West,267,1.0,6.0,96,0.00,,OVC018,0.00,VWS V14.01,2013-09-20 13:48:00,
2013-09-20 08:53:00,55.0,53.9,29.65,West,266,2.0,6.0,96,0.00,,OVC018,0.00,VWS V14.01,2013-09-20 13:53:00,
2013-09-20 08:58:00,55.1,54.0,29.65,West,267,4.0,6.0,96,0.00,,OVC018,0.00,VWS V14.01,2013-09-20 13:58:00,
2013-09-20 09:00:00,55.3,54.2,29.65,SW,235,8.0,8.0,96,0.00,,BKN018,0.00,VWS V15.00,2013-09-20 14:00:00,
2013-09-20 09:03:00,55.3,54.2,29.65,WSW,245,1.0,8.0,96,0.00,,OVC037,0.00,VWS V14.01,2013-09-20 14:03:00,
2013-09-20 09:08:00,55.4,54.3,29.65,West,270,3.0,8.0,96,0.00,,OVC037,0.00,VWS V14.01,2013-09-20 14:08:00,
2013-09-20 09:13:00,55.6,54.5,29.65,West,259,0.0,8.0,96,0.00,,OVC037,0.00,VWS V14.01,2013-09-20 14:13:00,
2013-09-20 09:18:00,55.6,54.5,29.65,WSW,256,2.0,8.0,96,0.00,,OVC037,0.00,VWS V14.01,2013-09-20 14:18:00,
2013-09-20 09:23:00,55.9,54.8,29.65,West,266,2.0,8.0,96,0.00,,OVC037,0.00,VWS V14.01,2013-09-20 14:23:00,
2013-09-20 09:28:00,56.0,54.6,29.65,WSW,246,7.0,8.0,95,0.00,,OVC037,0.00,VWS V14.01,2013-09-20 14:28:00,
2013-09-20 09:30:00,56.0,54.6,29.65,WNW,291,2.0,8.0,95,0.00,,BKN018,0.00,VWS V15.00,2013-09-20 14:30:00,
2013-09-20 09:33:00,56.2,54.8,29.65,WSW,247,1.0,2.0,95,0.00,,OVC037,0.00,VWS V14.01,2013-09-20 14:33:00,
2013-09-20 09:38:00,56.3,54.9,29.65,West,273,3.0,5.0,95,0.00,,OVC037,0.00,VWS V14.01,2013-09-20 14:38:00,
2013-09-20 09:43:00,56.5,54.8,29.65,West,270,2.0,5.0,94,0.00,,OVC037,0.00,VWS V14.01,2013-09-20 14:43:00,
2013-09-20 09:48:00,56.5,54.8,29.65,WSW,249,2.0,7.0,94,0.00,,OVC037,0.00,VWS V14.01,2013-09-20 14:48:00,
2013-09-20 09:54:00,56.6,54.9,29.65,West,277,2.0,7.0,94,0.00,,OVC037,0.00,VWS V14.01,2013-09-20 14:54:00,
2013-09-20 09:59:00,56.7,55.3,29.65,West,260,3.0,7.0,95,0.00,,OVC037,0.00,VWS V14.01,2013-09-20 14:59:00,
2013-09-20 10:00:00,56.9,55.5,29.65,WSW,257,0.0,7.0,95,0.00,,BKN018,0.00,VWS V15.00,2013-09-20 15:00:00,
2013-09-20 10:04:00,57.0,55.6,29.65,West,264,5.0,7.0,95,0.00,,OVC022,0.00,VWS V14.01,2013-09-20 15:04:00,
2013-09-20 10:09:00,57.2,55.2,29.65,WSW,253,8.0,9.0,93,0.00,,OVC022,0.00,VWS V14.01,2013-09-20 15:09:00,
2013-09-20 10:14:00,57.2,55.2,29.65,West,271,6.0,10.0,93,0.00,,OVC022,0.00,VWS V14.01,2013-09-20 15:14:00,
2013-09-20 10:19:00,57.2,55.5,29.66,West,277,3.0,10.0,94,0.00,,OVC015,0.00,VWS V14.01,2013-09-20 15:19:00,
2013-09-20 10:24:00,57.2,55.2,29.66,WNW,284,5.0,11.0,93,0.00,,OVC015,0.00,VWS V14.01,2013-09-20 15:24:00,
2013-09-20 10:29:00,57.2,55.5,29.66,West,262,1.0,11.0,94,0.00,,OVC015,0.00,VWS V14.01,2013-09-20 15:29:00,
2013-09-20 10:30:00,57.2,55.5,29.66,West,263,3.0,11.0,94,0.00,,BKN018,0.00,VWS V15.00,2013-09-20 15:30:00,
2013-09-20 10:34:00,57.2,55.5,29.66,West,277,16.0,16.0,94,0.00,,OVC015,0.00,VWS V14.01,2013-09-20 15:34:00,
2013-09-20 10:39:00,57.2,55.5,29.66,West,270,4.0,16.0,94,0.00,,OVC015,0.00,VWS V14.01,2013-09-20 15:39:00,
2013-09-20 10:44:00,57.3,55.3,29.66,WNW,302,7.0,16.0,93,0.00,,OVC015,0.00,VWS V14.01,2013-09-20 15:44:00,
2013-09-20 10:49:00,57.3,55.0,29.66,WNW,284,3.0,16.0,92,0.00,,OVC017,0.00,VWS V14.01,2013-09-20 15:49:00,
2013-09-20 10:54:00,57.3,54.7,29.66,NNW,329,10.0,16.0,91,0.00,,OVC017,0.00,VWS V14.01,2013-09-20 15:54:00,
2013-09-20 10:59:00,57.3,54.1,29.66,WNW,290,11.0,18.0,89,0.00,,OVC017,0.00,VWS V14.01,2013-09-20 15:59:00,
2013-09-20 11:00:00,57.3,54.1,29.67,West,270,9.0,18.0,89,0.00,,BKN018,0.00,VWS V15.00,2013-09-20 16:00:00,
2013-09-20 11:04:00,57.5,54.3,29.67,NW,315,1.0,14.0,89,0.00,,OVC029,0.00,VWS V14.01,2013-09-20 16:04:00,
2013-09-20 11:09:00,57.6,54.1,29.67,WNW,284,6.0,14.0,88,0.00,,OVC029,0.00,VWS V14.01,2013-09-20 16:09:00,
2013-09-20 11:14:00,57.8,53.7,29.67,West,276,7.0,18.0,86,0.00,,OVC029,0.00,VWS V14.01,2013-09-20 16:14:00,
2013-09-20 11:19:00,57.5,54.0,29.67,NW,321,6.0,18.0,88,0.00,,OVC029,0.00,VWS V14.01,2013-09-20 16:19:00,
2013-09-20 11:24:00,57.2,53.7,29.67,North,350,11.0,18.0,88,0.00,,OVC029,0.00,VWS V14.01,2013-09-20 16:24:00,
2013-09-20 11:29:00,57.6,54.4,29.67,WNW,288,12.0,18.0,89,0.00,,OVC029,0.00,VWS V14.01,2013-09-20 16:29:00,
2013-09-20 11:30:00,57.8,54.0,29.67,West,274,6.0,18.0,87,0.00,,BKN018,0.00,VWS V15.00,2013-09-20 16:30:00,
2013-09-20 11:34:00,58.3,53.5,29.67,West,277,11.0,17.0,84,0.00,,OVC029,0.00,VWS V14.01,2013-09-20 16:34:00,
2013-09-20 11:39:00,58.4,53.3,29.67,NW,315,6.0,17.0,83,0.00,,OVC029,0.00,VWS V14.01,2013-09-20 16:39:00,
2013-09-20 11:44:00,58.4,53.3,29.67,NW,312,11.0,17.0,83,0.00,,OVC029,0.00,VWS V14.01,2013-09-20 16:44:00,
2013-09-20 11:49:00,58.4,53.3,29.68,West,273,14.0,17.0,83,0.00,,OVC047,0.00,VWS V14.01,2013-09-20 16:49:00,
2013-09-20 11:54:00,58.6,52.8,29.68,WNW,293,6.0,18.0,81,0.00,,OVC047,0.00,VWS V14.01,2013-09-20 16:54:00,
2013-09-20 11:59:00,58.9,52.8,29.67,NW,324,6.0,18.0,80,0.00,,OVC047,0.00,VWS V14.01,2013-09-20 16:59:00,
2013-09-20 12:00:00,59.0,52.8,29.67,West,270,5.0,18.0,80,0.00,,BKN018,0.00,VWS V15.00,2013-09-20 17:00:00,
2013-09-20 12:04:00,59.3,52.5,29.67,West,270,3.0,21.0,78,0.00,,-RA,0.00,VWS V14.01,2013-09-20 17:04:00,
2013-09-20 12:09:00,59.0,51.1,29.67,WNW,301,6.0,21.0,75,0.00,,-RA,0.00,VWS V14.01,2013-09-20 17:09:00,
2013-09-20 12:14:00,59.3,51.4,29.67,West,271,2.0,21.0,75,0.00,,-RA,0.00,VWS V14.01,2013-09-20 17:14:00,
2013-09-20 12:19:00,60.4,51.3,29.67,WNW,284,15.0,21.0,72,0.00,,-RA,0.00,VWS V14.01,2013-09-20 17:19:00,
2013-09-20 12:24:00,60.5,51.4,29.67,WNW,295,3.0,21.0,72,0.00,,-RA,0.00,VWS V14.01,2013-09-20 17:24:00,
2013-09-20 12:29:00,60.9,51.1,29.67,WNW,291,10.0,21.0,70,0.00,,-RA,0.00,VWS V14.01,2013-09-20 17:29:00,
2013-09-20 12:30:00,60.9,51.1,29.67,WNW,284,6.0,21.0,70,0.00,,BKN018,0.00,VWS V15.00,2013-09-20 17:30:00,
2013-09-20 12:34:00,61.0,51.2,29.67,WNW,287,2.0,21.0,70,0.00,,-RA,0.00,VWS V14.01,2013-09-20 17:34:00,
2013-09-20 12:39:00,61.2,50.6,29.67,NW,319,7.0,21.0,68,0.00,,-RA,0.00,VWS V14.01,2013-09-20 17:39:00,
2013-09-20 12:44:00,61.3,51.1,29.67,WNW,290,5.0,21.0,69,0.00,,-RA,0.00,VWS V14.01,2013-09-20 17:44:00,
2013-09-20 12:49:00,61.3,51.1,29.67,West,281,10.0,21.0,69,0.00,,-RA,0.00,VWS V14.01,2013-09-20 17:49:00,
2013-09-20 12:54:00,61.0,51.2,29.67,WNW,300,6.0,21.0,70,0.00,,-RA,0.00,VWS V14.01,2013-09-20 17:54:00,
2013-09-20 12:59:00,61.3,50.7,29.67,NW,307,5.0,21.0,68,0.00,,-RA,0.00,VWS V14.01,2013-09-20 17:59:00,
2013-09-20 13:00:00,61.5,51.2,29.67,WNW,286,8.0,21.0,69,0.00,,BKN018,0.00,VWS V15.00,2013-09-20 18:00:00,
2013-09-20 13:04:00,62.3,50.8,29.67,NW,326,10.0,17.0,66,0.00,,BKN036,0.00,VWS V14.01,2013-09-20 18:04:00,
2013-09-20 13:09:00,62.1,50.6,29.67,West,277,10.0,17.0,66,0.00,,BKN036,0.00,VWS V14.01,2013-09-20 18:09:00,
2013-09-20 13:14:00,61.6,51.0,29.67,WNW,300,11.0,18.0,68,0.00,,BKN036,0.00,VWS V14.01,2013-09-20 18:14:00,
2013-09-20 13:19:00,61.5,51.2,29.67,WNW,291,13.0,18.0,69,0.00,,BKN036,0.00,VWS V14.01,2013-09-20 18:19:00,
2013-09-20 13:24:00,61.3,51.1,29.67,WNW,297,0.0,18.0,69,0.00,,BKN036,0.00,VWS V14.01,2013-09-20 18:24:00,
2013-09-20 13:29:00,61.0,50.8,29.67,WNW,288,4.0,18.0,69,0.00,,BKN036,0.00,VWS V14.01,2013-09-20 18:29:00,
2013-09-20 13:30:00,61.0,50.8,29.67,WNW,301,10.0,18.0,69,0.00,,BKN018,0.00,VWS V15.00,2013-09-20 18:30:00,
2013-09-20 13:34:00,61.2,51.3,29.67,WNW,284,2.0,11.0,70,0.00,,BKN036,0.00,VWS V14.01,2013-09-20 18:34:00,
2013-09-20 13:39:00,62.4,51.3,29.67,NNW,332,13.0,13.0,67,0.00,,BKN036,0.00,VWS V14.01,2013-09-20 18:39:00,
2013-09-20 13:44:00,62.4,50.1,29.67,WNW,284,2.0,16.0,64,0.00,,BKN036,0.00,VWS V14.01,2013-09-20 18:44:00,
2013-09-20 13:49:00,61.8,50.3,29.67,West,270,5.0,16.0,66,0.00,,BKN036,0.00,VWS V14.01,2013-09-20 18:49:00,
2013-09-20 13:54:00,62.0,50.9,29.67,West,280,3.0,16.0,67,0.00,,BKN036,0.00,VWS V14.01,2013-09-20 18:54:00,
2013-09-20 13:59:00,62.0,50.5,29.67,WNW,290,3.0,16.0,66,0.00,,BKN036,0.00,VWS V14.01,2013-09-20 18:59:00,
2013-09-20 14:00:00,62.0,50.9,29.67,NW,326,14.0,16.0,67,0.00,,BKN018,0.00,VWS V15.00,2013-09-20 19:00:00,
2013-09-20 14:05:00,62.0,50.5,29.67,NNW,329,14.0,14.0,66,0.00,,BKN075,0.00,VWS V14.01,2013-09-20 19:05:00,
2013-09-20 14:10:00,62.1,50.6,29.67,SW,232,1.0,17.0,66,0.00,,BKN075,0.00,VWS V14.01,2013-09-20 19:10:00,
2013-09-20 14:15:00,62.0,50.5,29.67,NW,315,14.0,17.0,66,0.00,,BKN075,0.00,VWS V14.01,2013-09-20 19:15:00,
2013-09-20 14:20:00,62.1,50.2,29.67,West,280,8.0,17.0,65,0.00,,BKN075,0.00,VWS V14.01,2013-09-20 19:20:00,
2013-09-20 14:25:00,62.7,50.4,29.67,West,266,1.0,17.0,64,0.00,,BKN075,0.00,VWS V14.01,2013-09-20 19:25:00,
2013-09-20 14:30:00,63.1,49.9,29.67,NW,305,19.0,19.0,62,0.00,,BKN075,0.00,VWS V14.01,2013-09-20 19:30:00,
2013-09-20 14:35:00,62.4,50.1,29.67,West,270,5.0,18.0,64,0.00,,BKN075,0.00,VWS V14.01,2013-09-20 19:35:00,
2013-09-20 14:40:00,62.1,50.2,29.67,WSW,246,0.0,18.0,65,0.00,,BKN075,0.00,VWS V14.01,2013-09-20 19:40:00,
2013-09-20 14:45:00,62.7,49.9,29.67,WNW,300,3.0,18.0,63,0.00,,BKN075,0.00,VWS V14.01,2013-09-20 19:45:00,
2013-09-20 14:50:00,62.9,50.1,29.67,ENE,77,6.0,18.0,63,0.00,,BKN075,0.00,VWS V14.01,2013-09-20 19:50:00,
2013-09-20 14:55:00,62.3,49.6,29.67,West,280,11.0,18.0,63,0.00,,BKN075,0.00,VWS V14.01,2013-09-20 19:55:00,
2013-09-20 15:00:00,62.0,50.1,29.67,WNW,301,5.0,18.0,65,0.00,,BKN075,0.00,VWS V14.01,2013-09-20 20:00:00,
2013-09-20 15:05:00,61.8,50.3,29.67,NNW,329,8.0,11.0,66,0.00,,BKN070,0.00,VWS V14.01,2013-09-20 20:05:00,
2013-09-20 15:10:00,61.6,50.1,29.67,NNW,339,11.0,13.0,66,0.00,,BKN070,0.00,VWS V14.01,2013-09-20 20:10:00,
2013-09-20 15:15:00,61.3,49.0,29.67,WNW,290,3.0,16.0,64,0.00,,BKN070,0.00,VWS V14.01,2013-09-20 20:15:00,
2013-09-20 15:20:00,61.3,48.6,29.67,WNW,283,7.0,16.0,63,0.00,,BKN070,0.00,VWS V14.01,2013-09-20 20:20:00,
2013-09-20 15:25:00,61.2,48.9,29.67,NNW,331,9.0,16.0,64,0.00,,BKN070,0.00,VWS V14.01,2013-09-20 20:25:00,
2013-09-20 15:30:00,61.2,49.3,29.67,NW,312,2.0,16.0,65,0.00,,BKN070,0.00,VWS V14.01,2013-09-20 20:30:00,
2013-09-20 15:35:00,61.3,49.9,29.67,NW,315,6.0,8.0,66,0.00,,BKN070,0.00,VWS V14.01,2013-09-20 20:35:00,
2013-09-20 15:40:00,61.6,50.1,29.67,NNW,331,6.0,8.0,66,0.00,,BKN070,0.00,VWS V14.01,2013-09-20 20:40:00,
2013-09-20 15:45:00,62.0,49.7,29.67,NW,308,7.0,8.0,64,0.00,,BKN070,0.00,VWS V14.01,2013-09-20 20:45:00,
2013-09-20 15:50:00,62.4,49.7,29.67,NW,311,2.0,13.0,63,0.00,,BKN070,0.00,VWS V14.01,2013-09-20 20:50:00,
2013-09-20 15:55:00,62.7,49.5,29.67,WNW,284,11.0,13.0,62,0.00,,BKN070,0.00,VWS V14.01,2013-09-20 20:55:00,
2013-09-20 16:00:00,63.1,49.5,29.66,West,267,2.0,13.0,61,0.00,,BKN080,0.00,VWS V14.01,2013-09-20 21:00:00,
2013-09-20 16:05:00,62.9,49.3,29.66,WNW,298,8.0,15.0,61,0.00,,BKN080,0.00,VWS V14.01,2013-09-20 21:05:00,
2013-09-20 16:10:00,62.7,48.6,29.66,WNW,287,3.0,15.0,60,0.00,,BKN080,0.00,VWS V14.01,2013-09-20 21:10:00,
2013-09-20 16:15:00,63.1,49.9,29.67,NW,311,12.0,15.0,62,0.00,,BKN080,0.00,VWS V14.01,2013-09-20 21:15:00,
2013-09-20 16:20:00,63.2,49.5,29.67,West,278,4.0,16.0,61,0.00,,BKN080,0.00,VWS V14.01,2013-09-20 21:20:00,
2013-09-20 16:25:00,62.9,49.7,29.67,NW,319,14.0,16.0,62,0.00,,BKN080,0.00,VWS V14.01,2013-09-20 21:25:00,
2013-09-20 16:30:00,63.1,49.9,29.67,NW,310,1.0,16.0,62,0.00,,BKN080,0.00,VWS V14.01,2013-09-20 21:30:00,
2013-09-20 16:35:00,63.4,50.2,29.67,NNW,328,12.0,12.0,62,0.00,,BKN080,0.00,VWS V14.01,2013-09-20 21:35:00,
2013-09-20 16:40:00,62.9,49.3,29.67,West,277,8.0,18.0,61,0.00,,BKN080,0.00,VWS V14.01,2013-09-20 21:40:00,
2013-09-20 16:45:00,62.9,50.1,29.67,West,270,10.0,18.0,63,0.00,,BKN080,0.00,VWS V14.01,2013-09-20 21:45:00,
2013-09-20 16:50:00,62.6,50.3,29.67,WNW,283,5.0,18.0,64,0.00,,BKN080,0.00,VWS V14.01,2013-09-20 21:50:00,
2013-09-20 16:55:00,62.1,49.8,29.67,WNW,284,5.0,18.0,64,0.00,,BKN080,0.00,VWS V14.01,2013-09-20 21:55:00,
2013-09-20 17:00:00,62.1,49.8,29.67,WNW,302,2.0,18.0,64,0.00,,OVC080,0.00,VWS V14.01,2013-09-20 22:00:00,
2013-09-20 17:05:00,61.6,49.7,29.67,WNW,297,5.0,16.0,65,0.00,,OVC080,0.00,VWS V14.01,2013-09-20 22:05:00,
2013-09-20 17:10:00,61.8,49.9,29.67,West,270,2.0,16.0,65,0.00,,OVC080,0.00,VWS V14.01,2013-09-20 22:10:00,
2013-09-20 17:15:00,61.6,49.7,29.67,West,278,1.0,16.0,65,0.00,,OVC080,0.00,VWS V14.01,2013-09-20 22:15:00,
2013-09-20 17:20:00,61.5,50.0,29.67,West,269,10.0,16.0,66,0.00,,OVC080,0.00,VWS V14.01,2013-09-20 22:20:00,
2013-09-20 17:25:00,61.2,50.2,29.67,West,267,0.0,16.0,67,0.00,,OVC080,0.00,VWS V14.01,2013-09-20 22:25:00,
2013-09-20 17:30:00,60.7,50.5,29.67,West,273,12.0,16.0,69,0.00,,OVC080,0.00,VWS V14.01,2013-09-20 22:30:00,
2013-09-20 17:35:00,59.8,50.8,29.67,NW,326,7.0,16.0,72,0.00,,OVC080,0.00,VWS V14.01,2013-09-20 22:35:00,
2013-09-20 17:40:00,58.7,51.5,29.67,NNW,342,2.0,16.0,77,0.00,,OVC080,0.00,VWS V14.01,2013-09-20 22:40:00,
2013-09-20 17:45:00,58.0,52.2,29.68,WNW,294,2.0,16.0,81,0.00,,OVC080,0.00,VWS V14.01,2013-09-20 22:45:00,
2013-09-20 17:50:00,57.6,52.2,29.68,NW,321,6.0,16.0,82,0.00,,OVC080,0.00,VWS V14.01,2013-09-20 22:50:00,
2013-09-20 17:55:00,58.1,51.3,29.68,West,269,8.0,16.0,78,0.00,,OVC080,0.00,VWS V14.01,2013-09-20 22:55:00,
2013-09-20 18:00:00,58.9,50.3,29.68,West,281,10.0,12.0,73,0.00,,BKN085,0.00,VWS V14.01,2013-09-20 23:00:00,
2013-09-20 18:05:00,59.2,49.0,29.68,West,270,12.0,19.0,69,0.00,,BKN085,0.00,VWS V14.01,2013-09-20 23:05:00,
2013-09-20 18:10:00,59.0,48.9,29.68,NW,319,12.0,19.0,69,0.00,,BKN085,0.00,VWS V14.01,2013-09-20 23:10:00,
2013-09-20 18:15:00,59.2,49.4,29.69,WNW,298,3.0,19.0,70,0.00,,BKN085,0.00,VWS V14.01,2013-09-20 23:15:00,
2013-09-20 18:20:00,59.0,49.2,29.69,WNW,301,3.0,19.0,70,0.00,,BKN085,0.00,VWS V14.01,2013-09-20 23:20:00,
2013-09-20 18:25:00,59.0,49.2,29.69,WNW,287,2.0,19.0,70,0.00,,BKN085,0.00,VWS V14.01,2013-09-20 23:25:00,
2013-09-20 18:30:00,59.0,48.5,29.69,West,266,8.0,8.0,68,0.00,,BKN085,0.00,VWS V14.01,2013-09-20 23:30:00,
2013-09-20 18:35:00,58.9,48.8,29.69,NW,308,3.0,16.0,69,0.00,,BKN085,0.00,VWS V14.01,2013-09-20 23:35:00,
2013-09-20 18:40:00,58.7,49.3,29.69,NW,321,7.0,16.0,71,0.00,,BKN085,0.00,VWS V14.01,2013-09-20 23:40:00,
2013-09-20 18:45:00,58.3,49.7,29.69,NW,321,6.0,16.0,73,0.00,,BKN085,0.00,VWS V14.01,2013-09-20 23:45:00,
2013-09-20 18:50:00,58.0,49.8,29.69,NW,321,6.0,16.0,74,0.00,,BKN085,0.00,VWS V14.01,2013-09-20 23:50:00,
2013-09-20 18:55:00,58.0,49.8,29.69,NW,317,6.0,16.0,74,0.00,,BKN085,0.00,VWS V14.01,2013-09-20 23:55:00,
2013-09-20 19:00:00,58.0,50.1,29.70,WNW,295,2.0,2.0,75,0.00,,-RA,0.00,VWS V14.01,2013-09-21 00:00:00,
2013-09-20 19:05:00,57.8,49.6,29.70,NW,317,7.0,16.0,74,0.00,,-RA,0.00,VWS V14.01,2013-09-21 00:05:00,
2013-09-20 19:10:00,57.5,48.9,29.70,WNW,293,7.0,16.0,73,0.00,,-RA,0.00,VWS V14.01,2013-09-21 00:10:00,
2013-09-20 19:15:00,57.3,48.4,29.70,West,277,6.0,16.0,72,0.00,,-RA,0.00,VWS V14.01,2013-09-21 00:15:00,
2013-09-20 19:20:00,57.2,48.3,29.70,WNW,295,6.0,17.0,72,0.00,,-RA,0.00,VWS V14.01,2013-09-21 00:20:00,
2013-09-20 19:25:00,56.9,48.3,29.70,WNW,291,3.0,17.0,73,0.00,,-RA,0.00,VWS V14.01,2013-09-21 00:25:00,
2013-09-20 19:30:00,56.7,48.5,29.71,WNW,302,5.0,17.0,74,0.00,,BKN018,0.00,VWS V15.00,2013-09-21 00:30:00,
2013-09-20 19:31:00,56.7,48.5,29.71,NNW,342,7.0,9.0,74,0.00,,-RA,0.00,VWS V14.01,2013-09-21 00:31:00,
2013-09-20 19:36:00,56.6,48.4,29.71,North,355,8.0,16.0,74,0.00,,-RA,0.00,VWS V14.01,2013-09-21 00:36:00,
2013-09-20 19:41:00,56.5,49.0,29.71,NW,308,2.0,16.0,76,0.00,,-RA,0.00,VWS V14.01,2013-09-21 00:41:00,
2013-09-20 19:46:00,56.2,49.4,29.72,NNW,342,9.0,16.0,78,0.00,,-RA,0.00,VWS V14.01,2013-09-21 00:46:00,
2013-09-20 19:51:00,55.9,48.8,29.72,WNW,297,4.0,16.0,77,0.00,,-RA,0.00,VWS V14.01,2013-09-21 00:51:00,
2013-09-20 19:56:00,55.6,48.5,29.72,NW,311,7.0,18.0,77,0.00,,-RA,0.00,VWS V14.01,2013-09-21 00:56:00,
2013-09-20 20:00:00,55.0,48.6,29.72,WNW,300,1.0,18.0,79,0.00,,BKN018,0.00,VWS V15.00,2013-09-21 01:00:00,
2013-09-20 20:01:00,55.0,48.6,29.72,NNW,332,3.0,8.0,79,0.00,,BKN085,0.00,VWS V14.01,2013-09-21 01:01:00,
2013-09-20 20:06:00,54.5,48.5,29.72,NW,305,0.0,12.0,80,0.00,,BKN085,0.00,VWS V14.01,2013-09-21 01:06:00,
2013-09-20 20:11:00,54.4,48.4,29.72,WNW,298,3.0,12.0,80,0.00,,BKN085,0.00,VWS V14.01,2013-09-21 01:11:00,
2013-09-20 20:16:00,54.4,48.0,29.73,WNW,301,7.0,12.0,79,0.00,,BKN085,0.00,VWS V14.01,2013-09-21 01:16:00,
2013-09-20 20:21:00,54.4,48.4,29.73,NW,314,2.0,12.0,80,0.00,,BKN085,0.00,VWS V14.01,2013-09-21 01:21:00,
2013-09-20 20:26:00,54.4,48.4,29.73,NW,310,1.0,12.0,80,0.00,,BKN085,0.00,VWS V14.01,2013-09-21 01:26:00,
2013-09-20 20:30:00,54.4,48.4,29.73,NW,308,1.0,12.0,80,0.00,,BKN018,0.00,VWS V15.00,2013-09-21 01:30:00,
2013-09-20 20:31:00,54.4,48.4,29.73,WNW,286,6.0,6.0,80,0.00,,BKN085,0.00,VWS V14.01,2013-09-21 01:31:00,
2013-09-20 20:36:00,54.2,48.2,29.73,WNW,283,1.0,10.0,80,0.00,,BKN085,0.00,VWS V14.01,2013-09-21 01:36:00,
2013-09-20 20:41:00,54.2,48.2,29.73,West,270,0.0,10.0,80,0.00,,BKN085,0.00,VWS V14.01,2013-09-21 01:41:00,
2013-09-20 20:46:00,54.2,48.5,29.74,NW,325,6.0,10.0,81,0.00,,BKN085,0.00,VWS V14.01,2013-09-21 01:46:00,
2013-09-20 20:51:00,53.9,48.5,29.74,West,274,3.0,10.0,82,0.00,,BKN085,0.00,VWS V14.01,2013-09-21 01:51:00,
2013-09-20 20:56:00,53.8,48.8,29.74,WNW,284,3.0,10.0,83,0.00,,BKN085,0.00,VWS V14.01,2013-09-21 01:56:00,
2013-09-20 21:00:00,53.6,48.6,29.74,WNW,290,1.0,10.0,83,0.00,,BKN018,0.00,VWS V15.00,2013-09-21 02:00:00,
2013-09-20 21:01:00,53.6,48.6,29.74,WNW,290,3.0,3.0,83,0.00,,SCT080,0.00,VWS V14.01,2013-09-21 02:01:00,
2013-09-20 21:06:00,53.6,48.2,29.74,WNW,284,4.0,11.0,82,0.00,,SCT080,0.00,VWS V14.01,2013-09-21 02:06:00,
2013-09-20 21:11:00,53.6,48.6,29.74,West,281,1.0,11.0,83,0.00,,SCT080,0.00,VWS V14.01,2013-09-21 02:11:00,
2013-09-20 21:16:00,53.5,48.5,29.74,WNW,301,2.0,11.0,83,0.00,,SCT080,0.00,VWS V14.01,2013-09-21 02:16:00,
2013-09-20 21:21:00,53.3,48.3,29.74,WNW,290,2.0,11.0,83,0.00,,SCT080,0.00,VWS V14.01,2013-09-21 02:21:00,
2013-09-20 21:26:00,53.3,48.3,29.74,NW,321,3.0,11.0,83,0.00,,SCT080,0.00,VWS V14.01,2013-09-21 02:26:00,
2013-09-20 21:30:00,53.2,48.2,29.74,NW,312,1.0,11.0,83,0.00,,BKN018,0.00,VWS V15.00,2013-09-21 02:30:00,
2013-09-20 21:31:00,53.2,48.2,29.74,NW,312,2.0,2.0,83,0.00,,SCT080,0.00,VWS V14.01,2013-09-21 02:31:00,
2013-09-20 21:36:00,52.9,47.9,29.74,NW,311,1.0,5.0,83,0.00,,SCT080,0.00,VWS V14.01,2013-09-21 02:36:00,
2013-09-20 21:41:00,52.8,48.1,29.74,NW,311,1.0,5.0,84,0.00,,SCT080,0.00,VWS V14.01,2013-09-21 02:41:00,
2013-09-20 21:46:00,52.6,47.9,29.74,NW,312,1.0,5.0,84,0.00,,SCT080,0.00,VWS V14.01,2013-09-21 02:46:00,
2013-09-20 21:51:00,52.5,48.1,29.74,WNW,286,1.0,5.0,85,0.00,,SCT080,0.00,VWS V14.01,2013-09-21 02:51:00,
2013-09-20 21:56:00,52.3,47.9,29.74,NW,305,0.0,5.0,85,0.00,,SCT080,0.00,VWS V14.01,2013-09-21 02:56:00,
2013-09-20 22:00:00,52.2,47.8,29.74,NW,317,0.0,5.0,85,0.00,,BKN018,0.00,VWS V15.00,2013-09-21 03:00:00,
2013-09-20 22:01:00,52.0,47.6,29.74,NW,317,1.0,1.0,85,0.00,,FEW060,0.00,VWS V14.01,2013-09-21 03:01:00,
2013-09-20 22:06:00,52.0,48.0,29.74,NW,315,0.0,1.0,86,0.00,,FEW060,0.00,VWS V14.01,2013-09-21 03:06:00,
2013-09-20 22:11:00,51.9,47.8,29.74,West,274,0.0,2.0,86,0.00,,FEW060,0.00,VWS V14.01,2013-09-21 03:11:00,
2013-09-20 22:16:00,51.7,48.0,29.75,NW,307,0.0,2.0,87,0.00,,FEW060,0.00,VWS V14.01,2013-09-21 03:16:00,
2013-09-20 22:21:00,51.6,47.9,29.75,WNW,298,3.0,3.0,87,0.00,,FEW060,0.00,VWS V14.01,2013-09-21 03:21:00,
2013-09-20 22:26:00,51.6,47.9,29.75,WNW,297,1.0,3.0,87,0.00,,FEW060,0.00,VWS V14.01,2013-09-21 03:26:00,
2013-09-20 22:30:00,51.6,47.9,29.75,WNW,297,1.0,3.0,87,0.00,,BKN018,0.00,VWS V15.00,2013-09-21 03:30:00,
2013-09-20 22:31:00,51.6,47.9,29.75,WNW,297,0.0,1.0,87,0.00,,FEW060,0.00,VWS V14.01,2013-09-21 03:31:00,
2013-09-20 22:36:00,51.4,47.7,29.75,WNW,300,2.0,2.0,87,0.00,,FEW060,0.00,VWS V14.01,2013-09-21 03:36:00,
2013-09-20 22:41:00,51.3,47.6,29.75,WNW,298,0.0,2.0,87,0.00,,FEW060,0.00,VWS V14.01,2013-09-21 03:41:00,
2013-09-20 22:46:00,51.1,47.4,29.75,WNW,283,0.0,3.0,87,0.00,,FEW060,0.00,VWS V14.01,2013-09-21 03:46:00,
2013-09-20 22:51:00,51.0,47.6,29.75,WNW,283,0.0,3.0,88,0.00,,FEW060,0.00,VWS V14.01,2013-09-21 03:51:00,
2013-09-20 22:56:00,50.8,47.4,29.75,WNW,290,1.0,3.0,88,0.00,,FEW060,0.00,VWS V14.01,2013-09-21 03:56:00,
2013-09-20 23:00:00,52.2,47.8,29.74,NW,317,0.0,5.0,85,0.00,,BKN018,0.00,VWS V15.00,2013-09-21 04:00:00,
2013-09-20 23:01:00,50.8,47.4,29.75,WNW,294,1.0,1.0,88,0.00,,CLR,0.00,VWS V14.01,2013-09-21 04:01:00,
2013-09-20 23:02:00,50.8,47.4,29.75,WNW,295,1.0,1.0,88,0.00,,CLR,0.00,VWS V14.01,2013-09-21 04:02:00,
2013-09-20 23:07:00,51.0,47.6,29.75,WNW,300,2.0,3.0,88,0.00,,CLR,0.00,VWS V14.01,2013-09-21 04:07:00,
2013-09-20 23:12:00,51.0,47.6,29.75,WNW,284,1.0,3.0,88,0.00,,CLR,0.00,VWS V14.01,2013-09-21 04:12:00,
2013-09-20 23:17:00,51.1,47.7,29.75,WNW,286,1.0,3.0,88,0.00,,CLR,0.00,VWS V14.01,2013-09-21 04:17:00,
2013-09-20 23:22:00,51.1,47.7,29.75,West,276,1.0,3.0,88,0.00,,CLR,0.00,VWS V14.01,2013-09-21 04:22:00,
2013-09-20 23:27:00,51.1,47.7,29.75,WNW,288,1.0,3.0,88,0.00,,CLR,0.00,VWS V14.01,2013-09-21 04:27:00,
2013-09-20 23:30:00,51.0,47.6,29.75,WNW,283,1.0,3.0,88,0.00,,BKN018,0.00,VWS V15.00,2013-09-21 04:30:00,
2013-09-20 23:32:00,51.0,47.6,29.75,WNW,283,0.0,2.0,88,0.00,,CLR,0.00,VWS V14.01,2013-09-21 04:32:00,
2013-09-20 23:37:00,50.8,47.4,29.75,WNW,283,2.0,2.0,88,0.00,,CLR,0.00,VWS V14.01,2013-09-21 04:37:00,
2013-09-20 23:42:00,50.7,47.6,29.75,WNW,284,1.0,2.0,89,0.00,,CLR,0.00,VWS V14.01,2013-09-21 04:42:00,
2013-09-20 23:47:00,50.5,47.4,29.75,WNW,284,0.0,2.0,89,0.00,,CLR,0.00,VWS V14.01,2013-09-21 04:47:00,
2013-09-20 23:52:00,50.4,47.6,29.75,WNW,286,0.0,2.0,90,0.00,,CLR,0.00,VWS V14.01,2013-09-21 04:52:00,
2013-09-20 23:57:00,50.2,47.4,29.75,WNW,286,0.0,2.0,90,0.00,,CLR,0.00,VWS V14.01,2013-09-21 04:57:00,